Hourly Weather Roundup
Issued by NWS Central Illinois

Home | Current Version | Previous Version | Text Only | Print | Product List | Glossary On
Versions: 1 2 3 4 5 6 7 8 9 10 11 12 13 14 15 16 17 18 19 20 21 22 23 24 25 26 27 28 29 30 31 32 33 34 35 36 37 38 39 40 41 42 43 44 45 46 47 48 49 50
000
NZUS43 KILX 221410
HWRILX

AREA WEATHER ROUNDUP
NATIONAL WEATHER SERVICE, LINCOLN IL
900 AM CDT MON SEP 22 2014


CITY           SKY/WX    TMP DP  RH WIND       PRES   REMARKS
BLOOMINGTON    SUNNY     54  48  80 N6        30.31R
CHAMPAIGN      MOSUNNY   55  49  80 N6        30.29R
DECATUR        SUNNY     57  49  74 N8        30.29R
FLORA          SUNNY     56  52  84 N6        30.28R
GALESBURG      SUNNY     52  49  91 N6        30.32R
JACKSONVILLE   SUNNY     57  52  84 N3        30.30R
LACON          SUNNY     50  46  85 CALM      30.30R
LAWRENCEVILLE  SUNNY     58  52  80 N8        30.26R
LITCHFIELD     SUNNY     54  51  90 NE3       30.28S
$$


CITY           SKY/WX    TMP DP  RH WIND       PRES   REMARKS
LINCOLN        SUNNY     56  49  79 N3        30.28S
MACOMB         SUNNY     53  49  86 N5        30.33R
MATTOON        SUNNY     54  49  83 N9        30.28R
MT CARMEL AP   SUNNY     59  54  82 N5        30.25S
OLNEY-NOBLE AP SUNNY     55  50  82 CALM      30.28R
PARIS          SUNNY     55  51  85 N3        30.29R
PEORIA         SUNNY     55  47  74 NE3       30.30R
PONTIAC        SUNNY     54  48  82 N3        30.29R
RANTOUL        SUNNY     55  47  75 N3        30.29R
ROBINSON       SUNNY     56  54  90 N6        30.27S
SPRINGFIELD    SUNNY     57  50  77 E5        30.30R
TAYLORVILLE    SUNNY     52  50  93 CALM      30.29S
$$

...REGIONAL REPORTS...


CITY           SKY/WX    TMP DP  RH WIND       PRES   REMARKS
CHICAGO O`HARE MOSUNNY   51  40  65 NW6       30.27R
KANKAKEE       SUNNY     53  47  79 CALM      30.29S
MOLINE         SUNNY     53  45  74 CALM      30.31R
MOUNT VERNON   SUNNY     57  48  72 NE7       30.28R
PITTSFIELD     SUNNY     57  50  77 CALM      30.32R
QUINCY         SUNNY     55  49  80 NE6       30.31R
ROCKFORD       SUNNY     52  44  74 CALM      30.31R
$$


CITY           SKY/WX    TMP DP  RH WIND       PRES   REMARKS
BURLINGTON     SUNNY     56  48  74 NE6       30.31R
CEDAR RAPIDS   SUNNY     51  50  96 CALM      30.31R
DES MOINES     SUNNY     55  49  80 CALM      30.32R
KIRKSVILLE     SUNNY     56  51  84 N6        30.33R
OTTUMWA        SUNNY     54  48  80 NE3       30.31R
ST LOUIS       SUNNY     59  51  75 NE3       30.29R
$$


CITY           SKY/WX    TMP DP  RH WIND       PRES   REMARKS
TERRE HAUTE    SUNNY     56  48  74 NE8       30.27R
EVANSVILLE     MOSUNNY   59  51  75 NE10      30.26R
INDIANAPOLIS   MOSUNNY   51  41  68 N9        30.25R
LAFAYETTE      MOSUNNY   51  48  89 NE5       30.28R
MADISON        SUNNY     52  42  69 VRB3      30.27S
MILWAUKEE      SUNNY     51  41  68 W6        30.27R
$$




USA.gov is the U.S. government's official web portal to all federal, state and local government web resources and services.